Location: Unspecified
(0.0000°N, 0.0000°E)
Time: 08:12:36
(UTC+02:00)

Milstar 3 - Visible Passes

Search period start: 24 April 2014 00:00
Search period end: 04 May 2014 00:00
Orbit: 1088 x 5157 km, 28.2° (Epoch: 05 April)

Date Brightness Start Highest point End Pass type
(mag) Time Alt. Az. Time Alt. Az. Time Alt. Az.
24 Apr 6.0 01:06:05 10° W 01:23:31 34° WNW 01:23:31 34° WNW visible
24 Apr 5.7 04:21:13 12° N 04:21:13 12° N 04:23:24 10° N visible
24 Apr 5.2 07:05:25 10° NNW 07:08:49 14° NNE 07:12:01 10° NE visible
24 Apr 5.9 20:57:45 10° SW 21:31:02 79° SSE 21:53:07 18° ENE visible
24 Apr 5.5 23:55:59 10° WSW 00:25:06 52° NNW 00:26:51 51° NNW visible
25 Apr 5.9 03:23:01 11° NNE 03:23:01 11° NNE 03:23:18 10° NNE visible
25 Apr 5.4 06:04:36 10° N 06:05:59 10° N 06:07:17 10° NNE visible
25 Apr 6.1 19:52:39 10° SW 20:23:43 66° SSE 20:51:49 10° ENE visible
25 Apr 5.6 22:47:19 10° WSW 23:19:52 67° NNW 23:30:16 42° NNE visible
26 Apr 6.3 01:53:48 10° WNW 02:04:00 22° WNW 02:04:00 22° WNW visible
26 Apr 5.6 05:00:27 10° NNW 05:02:37 11° N 05:04:35 10° N visible
26 Apr 5.8 21:40:11 10° WSW 22:13:46 82° NNW 22:33:47 20° NE visible
27 Apr 5.8 00:42:22 10° W 01:07:10 37° NNW 01:07:31 37° NNW visible
27 Apr 5.7 04:00:07 14° N 04:00:07 14° N 04:03:43 10° NNE visible
27 Apr 5.1 06:42:59 10° NNW 06:47:48 17° NNE 06:52:03 10° ENE visible
27 Apr 6.0 20:34:24 10° SW 21:06:54 83° SSE 21:33:51 10° ENE visible
27 Apr 5.7 23:32:07 10° WSW 00:02:03 50° NNW 00:11:07 36° NNE visible
28 Apr 5.9 02:42:12 10° WNW 03:01:53 12° NNE 03:02:47 10° NNE visible
28 Apr 5.3 05:40:49 10° NNW 05:45:02 14° N 05:48:37 10° NE visible
28 Apr 6.2 19:29:47 10° SW 19:59:33 70° SSE 20:29:23 10° ENE visible
28 Apr 5.9 22:23:34 10° WSW 22:56:15 63° NNW 23:14:48 19° NE visible
29 Apr 6.0 01:30:27 10° WNW 01:48:34 27° NNW 01:48:34 27° NNW visible
29 Apr 5.6 04:37:10 11° NNW 04:41:40 14° N 04:45:49 10° NNE visible
29 Apr 4.4 07:22:28 10° NW 07:28:55 31° NNE 07:34:44 10° E visible
29 Apr 6.0 21:16:44 10° WSW 21:49:42 78° NNW 22:15:06 10° NE visible
30 Apr 5.9 00:18:44 10° W 00:44:39 36° NNW 00:52:18 29° N visible
30 Apr 5.8 03:38:54 16° N 03:38:54 16° N 03:43:54 10° NNE visible
30 Apr 4.9 06:20:33 10° NNW 06:26:49 22° NNE 06:31:53 10° ENE visible
30 Apr 6.1 20:11:21 10° WSW 20:42:37 88° SSE 21:11:28 10° ENE visible
30 Apr 6.1 23:08:27 10° W 23:38:52 48° NNW 23:56:06 16° NE visible
01 May 6.0 02:18:57 10° WNW 02:40:38 14° NNE 02:42:19 10° NNE visible
01 May 5.3 05:17:42 10° NNW 05:24:05 18° N 05:29:00 10° NE visible
01 May 6.1 22:00:06 10° WSW 22:32:29 60° NNW 22:55:54 10° NE visible
02 May 6.0 01:07:01 10° WNW 01:27:53 27° NNW 01:33:43 24° N visible
02 May 5.6 04:15:51 14° NNW 04:20:41 17° N 04:26:18 10° NE visible
02 May 4.1 07:00:30 10° NW 07:07:54 39° NNE 07:13:59 10° E visible
02 May 6.2 20:53:35 10° WSW 21:25:31 74° NNW 21:52:48 10° NE visible
02 May 6.2 23:55:13 10° W 00:22:02 36° NNW 00:37:35 13° NE visible
03 May 5.8 03:05:39 10° NW 03:17:32 18° N 03:23:59 10° NE visible
03 May 4.7 05:58:01 10° NW 06:05:49 27° NNE 06:11:35 10° ENE visible
03 May 6.2 19:48:35 10° WSW 20:18:15 88° NNW 20:48:48 10° ENE visible
03 May 6.3 22:45:02 10° W 23:15:36 46° NNW 23:36:35 10° NE visible
